Home   Weather   Detmold   Past weeks

Flag for Germany Past Weather in Detmold, North Rhine-Westphalia, Germany — Yesterday and Last 2 Weeks

Now
59 °F

Passing clouds.


Feels Like: 58 °F
Forecast: 54 / 64 °F
Wind: 6 mph from Southwest

Location: Paderborn / Lippstadt

Current Time: Aug 18, 2017 at 10:06:17 pm

Latest Report: Aug 18, 2017 at 9:20 pm


Visibility: N/A

Pressure: 29.92 "Hg

Humidity: 94%

Dew Point: 57 °F

Location of DetmoldLocation

Past Weather in Detmold — Graph

°F

Detmold Temperature Yesterday

Maximum temperature yesterday: 75 °F (at 12:50 pm)
Minimum temperature yesterday: 63 °F (at 2:50 am)
Average temperature yesterday: 68 °F

High & Low Weather Summary for the Past Weeks

 TemperatureHumidityPressure
High79 °F (Aug 15, 11:50 am)100% (Aug 5, 8:50 am)30.24 "Hg (Aug 5, 8:50 am)
Low50 °F (Aug 7, 2:50 am)31% (Aug 7, 4:20 pm)29.80 "Hg (Aug 8, 10:50 am)
Average63 °F74%30.03 "Hg
* Reported Aug 3 9:20 pm — Aug 18 9:20 pm, Detmold. Weather by CustomWeather, © 2017

Note: Actual official high and low records may vary slightly from our data, if they occured in-between our weather recording intervals... More about our weather records

Advertising

Detmold Weather History for the Previous 24 Hours

Scroll right to see more
 ConditionsComfort  
Time TempWeatherWind HumidityBarometerVisibility
9:20 pm
Fri, Aug 18
59 °FPassing clouds.6 mph94%29.92 "HgN/A
8:20 pm61 °FPassing clouds.8 mph88%29.89 "HgN/A
7:50 pm63 °FLight rain. Scattered clouds.9 mph83%29.89 "HgN/A
7:20 pm63 °FLight rain. Broken clouds.8 mph83%29.89 "Hg5 mi
6:50 pm63 °FLight rain. Broken clouds.10 mph88%29.89 "Hg5 mi
6:20 pm64 °FLight rain. Broken clouds.10 mph88%29.89 "Hg5 mi
5:50 pm64 °FLight rain. Broken clouds.5 mph88%29.89 "Hg5 mi
5:20 pm64 °FLight rain. Broken clouds.5 mph94%29.89 "HgN/A
4:50 pm64 °FRain. Broken clouds.3 mph94%29.89 "Hg5 mi
4:20 pm64 °FRain. Broken clouds.1 mph88%29.89 "Hg4 mi
3:20 pm68 °FLight rain. Partly sunny.5 mph73%29.89 "HgN/A
2:50 pm68 °FPartly sunny.6 mph69%29.89 "HgN/A
2:20 pm68 °FBroken clouds.5 mph73%29.92 "HgN/A
1:50 pm66 °FScattered clouds.5 mph78%29.92 "HgN/A
1:20 pm64 °FBroken clouds.6 mph88%29.92 "HgN/A
12:50 pm66 °FBroken clouds.3 mph83%29.92 "HgN/A
12:20 pm63 °FBroken clouds.6 mph88%29.92 "HgN/A
11:50 am61 °FBroken clouds.5 mph94%29.92 "HgN/A
11:20 am61 °FLight rain. Fog.5 mph94%29.95 "Hg3 mi
10:50 am59 °FLight rain. Fog.3 mph100%29.95 "Hg2 mi
10:20 am59 °FLight rain. Fog.1 mph94%29.95 "Hg2 mi
9:50 am61 °FLight rain. Fog.5 mph94%29.95 "Hg2 mi
9:20 am61 °FLight rain. Partly sunny.2 mph94%29.95 "Hg4 mi
8:50 am59 °FRain. Fog.3 mph100%29.95 "Hg3 mi
8:20 am61 °FLight rain. Partly sunny.5 mph94%29.95 "Hg5 mi
7:50 am61 °FLight rain. Partly sunny.2 mph94%29.95 "HgN/A
7:20 am63 °FLight rain. Clear.3 mph88%29.98 "HgN/A
6:50 am61 °FLight rain. Clear.6 mph94%29.95 "HgN/A
6:20 am63 °FSunny.3 mph88%29.98 "Hg10 mi
5:50 am61 °FClear.6 mph94%29.98 "Hg10 mi
5:20 am63 °FClear.7 mph88%29.95 "Hg10 mi
4:50 am63 °FClear.7 mph88%29.95 "Hg10 mi
4:20 am63 °FClear.7 mph88%29.95 "Hg10 mi
3:50 am63 °FClear.6 mph88%29.98 "Hg10 mi
2:50 am64 °FClear.6 mph83%29.98 "Hg10 mi
2:20 am64 °FClear.8 mph83%29.98 "Hg10 mi
1:50 am64 °FClear.9 mph83%29.98 "Hg10 mi
1:20 am64 °FClear.8 mph83%29.98 "Hg10 mi
12:50 am64 °FClear.8 mph83%29.98 "Hg10 mi
12:20 am64 °FClear.9 mph83%30.01 "Hg10 mi
11:50 pm
Thu, Aug 17
64 °FLight rain. Passing clouds.12 mph83%30.01 "HgN/A
11:20 pm64 °FLight rain. Passing clouds.8 mph78%30.01 "HgN/A
10:50 pm66 °FLight rain. Passing clouds.9 mph73%30.01 "HgN/A
10:20 pm66 °FPassing clouds.9 mph73%30.01 "HgN/A
Weather by CustomWeather, © 2017

See weather overviewHow to use our weather pages